Location: Unspecified
(41.1637°N, 24.2901°E)
Time: 14:17:27
(UTC+01:00)

ARIANE 6 FM1 Upper Stage - Pass Details

Date: 24 January 2026
Orbit: 522 x 609 km, 62.0° (Epoch: 11 February)

Event Time Altitude Azimuth Distance (km) Brightness Sun altitude
Rises 18:33:02 0° 247° (WSW) 2,707 7.4 -23.2°
Reaches altitude 10° 18:35:34 10° 261° (W) 1,803 6.3 -23.6°
Maximum altitude 18:38:55 24° 317° (NW) 1,122 4.5 -24.3°
Enters shadow 18:40:10 21° 346° (NNW) 1,234 4.5 -24.5°
